User: anonymous   Login
Location: Unspecified
(0.0000°N, 0.0000°E)
Time: 20:47:55
(UTC+02:00)
Language:

CZ-4 R/B - Orbit

View from above orbital plane
View from above orbital plane
View from above satellite
View from above satellite

Ground track
Ground track

The orbit data is extracted from the following two-line orbital elements,

1 28059U 03049C   16242.76992380  .00000005  00000-0  13291-4 0  9994
2 28059  98.6003 116.2098 0051239  56.4691 350.7244 14.52453060681370
Epoch (UTC): 29 August 2016 18:28:41
Eccentricity: 0.0051239
inclination: 98.6003°
perigee height: 681 km
apogee height: 754 km
right ascension of ascending node: 116.2098°
argument of perigee: 56.4691°
revolutions per day: 14.52453060
mean anomaly at epoch: 350.7244°
orbit number at epoch: 68137

The dashed part of the orbit path shows where the satellite is in the earth's shadow,  

DLR